Time,TemperatureF,DewpointF,PressureIn,WindDirection,WindDirectionDegrees,WindSpeedMPH,WindSpeedGustMPH,Humidity,HourlyPrecipIn,Conditions,Clouds,dailyrainin,SoftwareType,DateUTC
2013-04-03 00:14:00,45.9,19.1,29.78,WNW,292,1.7,-999.0,34,-99.99,,,0.00,Acu-Link.com,2013-04-03 04:14:00,
2013-04-03 00:29:00,45.7,19.6,29.78,SE,135,2.7,-999.0,35,-99.99,,,0.00,Acu-Link.com,2013-04-03 04:29:00,
2013-04-03 00:44:00,45.5,18.8,29.78,SSE,157,1.7,-999.0,34,-99.99,,,0.00,Acu-Link.com,2013-04-03 04:44:00,
2013-04-03 01:00:00,45.5,19.5,29.79,NE,45,2.7,-999.0,35,-99.99,,,0.00,Acu-Link.com,2013-04-03 05:00:00,
2013-04-03 01:15:00,45.5,19.5,29.80,West,270,2.7,-999.0,35,-99.99,,,0.00,Acu-Link.com,2013-04-03 05:15:00,
2013-04-03 01:30:00,45.3,19.3,29.81,SW,225,2.2,-999.0,35,-99.99,,,0.00,Acu-Link.com,2013-04-03 05:30:00,
2013-04-03 01:45:00,45.1,19.1,29.80,WNW,292,1.7,-999.0,35,-99.99,,,0.00,Acu-Link.com,2013-04-03 05:45:00,
2013-04-03 02:00:00,45.0,19.0,29.80,NNW,337,1.7,-999.0,35,-99.99,,,0.00,Acu-Link.com,2013-04-03 06:00:00,
2013-04-03 02:46:00,44.6,20.0,29.79,ENE,67,2.7,-999.0,37,-99.99,,,0.00,Acu-Link.com,2013-04-03 06:46:00,
2013-04-03 03:02:00,44.4,19.8,29.78,NE,45,2.2,-999.0,37,-99.99,,,0.00,Acu-Link.com,2013-04-03 07:02:00,
2013-04-03 03:17:00,44.4,19.8,29.78,East,90,2.7,-999.0,37,-99.99,,,0.00,Acu-Link.com,2013-04-03 07:17:00,
2013-04-03 03:32:00,44.1,19.5,29.78,ENE,67,2.7,-999.0,37,-99.99,,,0.00,Acu-Link.com,2013-04-03 07:32:00,
2013-04-03 03:47:00,43.9,19.3,29.79,NNW,337,0.0,-999.0,37,-99.99,,,0.00,Acu-Link.com,2013-04-03 07:47:00,
2013-04-03 04:03:00,43.7,19.2,29.79,ENE,67,0.0,-999.0,37,-99.99,,,0.00,Acu-Link.com,2013-04-03 08:03:00,
2013-04-03 04:18:00,43.5,18.3,29.79,West,270,1.7,-999.0,36,-99.99,,,0.00,Acu-Link.com,2013-04-03 08:18:00,
2013-04-03 04:33:00,43.3,18.8,29.79,North,0,3.7,-999.0,37,-99.99,,,0.00,Acu-Link.com,2013-04-03 08:33:00,
2013-04-03 04:49:00,42.8,19.0,29.79,WNW,292,0.0,-999.0,38,-99.99,,,0.00,Acu-Link.com,2013-04-03 08:49:00,
2013-04-03 05:04:00,42.4,18.6,29.79,NE,45,2.2,-999.0,38,-99.99,,,0.00,Acu-Link.com,2013-04-03 09:04:00,
2013-04-03 05:19:00,42.3,19.1,29.78,ENE,67,1.7,-999.0,39,-99.99,,,0.00,Acu-Link.com,2013-04-03 09:19:00,
2013-04-03 05:34:00,41.7,18.6,29.79,WNW,292,2.2,-999.0,39,-99.99,,,0.00,Acu-Link.com,2013-04-03 09:34:00,
2013-04-03 05:49:00,41.5,18.4,29.80,SW,225,1.1,-999.0,39,-99.99,,,0.00,Acu-Link.com,2013-04-03 09:49:00,
2013-04-03 06:05:00,41.4,18.9,29.81,NE,45,3.7,-999.0,40,-99.99,,,0.00,Acu-Link.com,2013-04-03 10:05:00,
2013-04-03 06:20:00,41.2,18.7,29.81,East,90,2.7,-999.0,40,-99.99,,,0.00,Acu-Link.com,2013-04-03 10:20:00,
2013-04-03 06:35:00,40.8,18.4,29.82,NE,45,1.7,-999.0,40,-99.99,,,0.00,Acu-Link.com,2013-04-03 10:35:00,
2013-04-03 06:50:00,40.6,18.2,29.82,NE,45,2.7,-999.0,40,-99.99,,,0.00,Acu-Link.com,2013-04-03 10:50:00,
2013-04-03 07:05:00,40.6,18.2,29.83,NE,45,2.2,-999.0,40,-99.99,,,0.00,Acu-Link.com,2013-04-03 11:05:00,
2013-04-03 07:20:00,40.3,17.9,29.84,North,0,1.7,-999.0,40,-99.99,,,0.00,Acu-Link.com,2013-04-03 11:20:00,
2013-04-03 07:36:00,40.1,17.7,29.85,NNW,337,1.7,-999.0,40,-99.99,,,0.00,Acu-Link.com,2013-04-03 11:36:00,
2013-04-03 08:21:00,40.8,18.9,29.88,ENE,67,1.7,-999.0,41,-99.99,,,0.00,Acu-Link.com,2013-04-03 12:21:00,
2013-04-03 08:37:00,41.5,17.2,29.88,East,90,6.3,-999.0,37,-99.99,,,0.00,Acu-Link.com,2013-04-03 12:37:00,
2013-04-03 08:52:00,41.2,16.3,29.89,NE,45,3.7,-999.0,36,-99.99,,,0.00,Acu-Link.com,2013-04-03 12:52:00,
2013-04-03 09:07:00,41.4,15.8,29.89,ESE,112,4.7,-999.0,35,-99.99,,,0.00,Acu-Link.com,2013-04-03 13:07:00,
2013-04-03 09:23:00,42.4,16.0,29.88,East,90,8.3,-999.0,34,-99.99,,,0.00,Acu-Link.com,2013-04-03 13:23:00,
2013-04-03 09:38:00,43.2,16.1,29.87,ENE,67,6.8,-999.0,33,-99.99,,,0.00,Acu-Link.com,2013-04-03 13:38:00,
2013-04-03 09:53:00,44.2,16.9,29.87,West,270,2.2,-999.0,33,-99.99,,,0.00,Acu-Link.com,2013-04-03 13:53:00,
2013-04-03 10:09:00,45.0,17.6,29.88,ESE,112,1.7,-999.0,33,-99.99,,,0.00,Acu-Link.com,2013-04-03 14:09:00,
2013-04-03 10:24:00,45.9,18.4,29.88,ENE,67,4.2,-999.0,33,-99.99,,,0.00,Acu-Link.com,2013-04-03 14:24:00,
2013-04-03 10:39:00,45.1,17.7,29.88,East,90,2.2,-999.0,33,-99.99,,,0.00,Acu-Link.com,2013-04-03 14:39:00,
2013-04-03 10:54:00,46.9,18.6,29.88,NNE,22,2.7,-999.0,32,-99.99,,,0.00,Acu-Link.com,2013-04-03 14:54:00,
2013-04-03 11:10:00,48.6,19.4,29.88,NW,315,1.1,-999.0,31,-99.99,,,0.00,Acu-Link.com,2013-04-03 15:10:00,
2013-04-03 11:25:00,49.8,18.8,29.89,North,0,2.2,-999.0,29,-99.99,,,0.00,Acu-Link.com,2013-04-03 15:25:00,
2013-04-03 11:40:00,49.3,20.0,29.89,NE,45,3.2,-999.0,31,-99.99,,,0.00,Acu-Link.com,2013-04-03 15:40:00,
2013-04-03 11:55:00,49.1,19.0,29.88,NE,45,3.2,-999.0,30,-99.99,,,0.00,Acu-Link.com,2013-04-03 15:55:00,
2013-04-03 12:10:00,50.2,19.2,29.89,ENE,67,2.7,-999.0,29,-99.99,,,0.00,Acu-Link.com,2013-04-03 16:10:00,
2013-04-03 12:26:00,51.3,20.1,29.88,East,90,3.7,-999.0,29,-99.99,,,0.00,Acu-Link.com,2013-04-03 16:26:00,
2013-04-03 12:41:00,51.4,19.4,29.87,West,270,2.7,-999.0,28,-99.99,,,0.00,Acu-Link.com,2013-04-03 16:41:00,
2013-04-03 12:56:00,52.7,22.2,29.87,ESE,112,1.1,-999.0,30,-99.99,,,0.00,Acu-Link.com,2013-04-03 16:56:00,
2013-04-03 13:12:00,55.4,23.7,29.86,WNW,292,1.7,-999.0,29,-99.99,,,0.00,Acu-Link.com,2013-04-03 17:12:00,
2013-04-03 13:42:00,56.5,22.0,29.85,ESE,112,1.7,-999.0,26,-99.99,,,0.00,Acu-Link.com,2013-04-03 17:42:00,
2013-04-03 13:58:00,55.6,20.3,29.84,NNE,22,3.2,-999.0,25,-99.99,,,0.00,Acu-Link.com,2013-04-03 17:58:00,
2013-04-03 14:13:00,55.9,22.4,29.83,NE,45,3.7,-999.0,27,-99.99,,,0.00,Acu-Link.com,2013-04-03 18:13:00,
2013-04-03 14:44:00,56.8,23.2,29.84,South,180,2.2,-999.0,27,-99.99,,,0.00,Acu-Link.com,2013-04-03 18:44:00,
2013-04-03 14:59:00,55.8,23.2,29.84,ENE,67,4.7,-999.0,28,-99.99,,,0.00,Acu-Link.com,2013-04-03 18:59:00,
2013-04-03 15:14:00,56.7,24.8,29.83,SW,225,1.7,-999.0,29,-99.99,,,0.00,Acu-Link.com,2013-04-03 19:14:00,
2013-04-03 15:30:00,56.7,24.0,29.83,South,180,3.2,-999.0,28,-99.99,,,0.00,Acu-Link.com,2013-04-03 19:30:00,
2013-04-03 15:45:00,55.9,23.3,29.84,NW,315,1.7,-999.0,28,-99.99,,,0.00,Acu-Link.com,2013-04-03 19:45:00,
2013-04-03 16:00:00,56.7,24.0,29.83,South,180,1.7,-999.0,28,-99.99,,,0.00,Acu-Link.com,2013-04-03 20:00:00,
2013-04-03 16:15:00,54.9,22.4,29.84,NNE,22,3.2,-999.0,28,-99.99,,,0.00,Acu-Link.com,2013-04-03 20:15:00,
2013-04-03 16:30:00,55.6,23.9,29.84,SE,135,0.0,-999.0,29,-99.99,,,0.00,Acu-Link.com,2013-04-03 20:30:00,
2013-04-03 17:01:00,56.7,26.4,29.83,SW,225,0.0,-999.0,31,-99.99,,,0.00,Acu-Link.com,2013-04-03 21:01:00,
2013-04-03 17:16:00,56.3,25.3,29.84,SE,135,0.0,-999.0,30,-99.99,,,0.00,Acu-Link.com,2013-04-03 21:16:00,
2013-04-03 17:47:00,55.9,24.9,29.83,SSW,202,2.2,-999.0,30,-99.99,,,0.00,Acu-Link.com,2013-04-03 21:47:00,
2013-04-03 18:02:00,55.2,26.6,29.83,West,270,1.1,-999.0,33,-99.99,,,0.00,Acu-Link.com,2013-04-03 22:02:00,
2013-04-03 18:18:00,55.0,26.4,29.83,ESE,112,0.0,-999.0,33,-99.99,,,0.00,Acu-Link.com,2013-04-03 22:18:00,
2013-04-03 18:33:00,54.3,25.8,29.82,ENE,67,0.0,-999.0,33,-99.99,,,0.00,Acu-Link.com,2013-04-03 22:33:00,
2013-04-03 18:48:00,53.4,25.7,29.83,NNE,22,0.0,-999.0,34,-99.99,,,0.00,Acu-Link.com,2013-04-03 22:48:00,
2013-04-03 19:03:00,53.2,25.6,29.83,WSW,247,0.0,-999.0,34,-99.99,,,0.00,Acu-Link.com,2013-04-03 23:03:00,
2013-04-03 19:34:00,51.8,25.0,29.84,ENE,67,0.0,-999.0,35,-99.99,,,0.00,Acu-Link.com,2013-04-03 23:34:00,
2013-04-03 19:49:00,51.4,26.0,29.85,West,270,0.0,-999.0,37,-99.99,,,0.00,Acu-Link.com,2013-04-03 23:49:00,
2013-04-03 20:04:00,50.5,25.2,29.84,WNW,292,0.0,-999.0,37,-99.99,,,0.00,Acu-Link.com,2013-04-04 00:04:00,
2013-04-03 20:19:00,50.4,26.4,29.85,NE,45,0.0,-999.0,39,-99.99,,,0.00,Acu-Link.com,2013-04-04 00:19:00,
2013-04-03 20:35:00,50.0,26.0,29.85,ESE,112,0.0,-999.0,39,-99.99,,,0.00,Acu-Link.com,2013-04-04 00:35:00,
2013-04-03 20:50:00,49.6,25.7,29.87,ENE,67,0.0,-999.0,39,-99.99,,,0.00,Acu-Link.com,2013-04-04 00:50:00,
2013-04-03 21:05:00,49.5,25.0,29.87,ENE,67,0.0,-999.0,38,-99.99,,,0.00,Acu-Link.com,2013-04-04 01:05:00,
2013-04-03 21:20:00,49.3,25.4,29.88,West,270,0.0,-999.0,39,-99.99,,,0.00,Acu-Link.com,2013-04-04 01:20:00,
2013-04-03 21:36:00,49.1,25.8,29.88,ENE,67,0.0,-999.0,40,-99.99,,,0.00,Acu-Link.com,2013-04-04 01:36:00,
2013-04-03 21:51:00,49.1,24.6,29.88,NE,45,2.2,-999.0,38,-99.99,,,0.00,Acu-Link.com,2013-04-04 01:51:00,
2013-04-03 22:21:00,48.7,24.2,29.89,NNE,22,0.0,-999.0,38,-99.99,,,0.00,Acu-Link.com,2013-04-04 02:21:00,
2013-04-03 22:37:00,48.6,24.2,29.90,West,270,0.0,-999.0,38,-99.99,,,0.00,Acu-Link.com,2013-04-04 02:37:00,
2013-04-03 23:07:00,48.6,24.2,29.91,ESE,112,1.7,-999.0,38,-99.99,,,0.00,Acu-Link.com,2013-04-04 03:07:00,
2013-04-03 23:22:00,48.4,24.6,29.91,NE,45,0.0,-999.0,39,-99.99,,,0.00,Acu-Link.com,2013-04-04 03:22:00,
2013-04-03 23:37:00,48.2,24.4,29.91,East,90,1.1,-999.0,39,-99.99,,,0.00,Acu-Link.com,2013-04-04 03:37:00,
2013-04-03 23:53:00,48.0,24.8,29.91,East,90,0.0,-999.0,40,-99.99,,,0.00,Acu-Link.com,2013-04-04 03:53:00,